Location: Unspecified
(40.7945°N, 111.1337°W)
Time: 00:04:50
(UTC-06:00)

CZ-3 Stage 3 - Visible Passes

Search period start: 20 October 2019 00:00
Search period end: 30 October 2019 00:00
Orbit: 419 x 34771 km, 30.5° (Epoch: 18 October)

Date Brightness Start Highest point End Pass type
(mag) Time Alt. Az. Time Alt. Az. Time Alt. Az.
21 Oct 7.8 19:53:47 10° SW 20:06:57 15° S 20:59:50 10° SSE visible
24 Oct 7.8 19:44:30 10° SSW 19:57:04 14° S 20:39:57 10° SSE visible
27 Oct 7.9 19:35:26 10° SSW 19:47:12 13° S 20:21:06 10° SSE visible
